Regional Weather Roundup
Issued by NWS

Home | Current Version | Previous Version | Text Only | Print | Product List | Glossary Off
Versions: 1 2 3 4 5 6 7 8 9 10 11 12 13 14 15 16 17 18 19 20 21 22 23 24 25 26 27 28 29 30 31 32 33 34 35 36 37 38 39 40 41 42 43 44 45 46 47 48 49 50

000
ASUS43 KLOT 241903
RWRIL

ILLINOIS REGIONAL WEATHER ROUNDUP
NATIONAL WEATHER SERVICE CHICAGO/ROMEOVILLE IL
200 PM CDT FRI MAR 24 2017

NOTE: "FAIR" INDICATES FEW OR NO CLOUDS BELOW 12,000 FEET WITH NO
SIGNIFICANT WEATHER AND/OR OBSTRUCTIONS TO VISIBILITY.

* THESE STATIONS ARE NOT UNDER NWS QUALITY CONTROL. THEY ALSO MAY NOT
  REPORT WEATHER SUCH AS PRECIPITATION OR FOG.

ILZ001-002-007-009-015-016-024-242000-
NORTHWEST ILLINOIS

CITY           SKY/WX    TMP DP  RH WIND       PRES   REMARKS
MOLINE         CLOUDY    76  40  27 W24G30    29.88R
STERLING*      MOSUNNY   77  44  30 SW20G26   29.88R
SAVANNA*       CLOUDY    74  45  35 SW13      29.88R
$$

ILZ003-004-008-010-011-017-018-242000-
NORTH CENTRAL ILLINOIS

CITY           SKY/WX    TMP DP  RH WIND       PRES   REMARKS
ROCKFORD       CLOUDY    79  45  29 W21       29.89R
FREEPORT*      CLOUDY    74  46  36 W16G25    29.90R
ROCHELLE*      SUNNY     79  47  31 SW17G29   29.89S
DE KALB*       SUNNY     80  46  30 SW24G30   29.90S
$$

ILZ005-006-012>014-019>023-242000-
NORTHEAST ILLINOIS

CITY           SKY/WX    TMP DP  RH WIND       PRES   REMARKS
CHICAGO-OHARE  MOSUNNY   81  42  25 W23G32    29.88F
CHICAGO-MIDWAY MOSUNNY   80  45  28 SW25G39   29.90F
AURORA         SUNNY     78  44  29 SW18G28   29.90F
LANSING*       SUNNY     79  53  41 W24G32    29.92F
WAUKEGAN       SUNNY     79  45  29 SW16G30   29.86F
DUPAGE AIRPORT SUNNY     80  45  28 SW22G36   29.89F
WHEELING       SUNNY     79  44  28 SW16G25   29.89F
MORRIS*        SUNNY     80  47  30 SW22G32   29.90F
NORTHERLY ISL    N/A     77  39  25 SW10        N/A
$$

LMZ740>746-242000-
SOUTHERN LAKE MICHIGAN

STATION/POSITION SKY/WX   TEMP    WIND        PRES    VSBY  WAVE
                          AIR SEA DIR/SP/G                  HT/PER
                          (F)     (DEG/KT/KT) (MB)    (MI)  (FT/S)
HARRISON CRIB              74     220/ 18/ 24   N/A
BURNHAM HARBOR             77     230/ 14/ 23   N/A
CALUMET HARBOR             77     220/ 18/ 29 1012.2F
BURNS HARBOR               73     220/ 18/ 30 1013.9S
MICHIGAN CITY              72     210/ 26/ 30   N/A
$$

ILZ025>027-034>036-040-047-049-050-058-095>099-242000-
WEST-CENTRAL ILLINOIS

CITY           SKY/WX    TMP DP  RH WIND       PRES   REMARKS
QUINCY         CLOUDY    75  47  36 SW15G24   29.91F
GALESBURG*     CLOUDY    77  45  31 SW20G28   29.89F
MACOMB*        CLOUDY    77  41  27 SW26G35   29.93F
PITTSFIELD*    CLOUDY    77  49  37 S20G26    29.93S
$$

ILZ028>032-037-038-041>044-048-051>054-059>061-242000-
CENTRAL ILLINOIS

CITY           SKY/WX    TMP DP  RH WIND       PRES   REMARKS
PONTIAC        SUNNY     80  53  39 SW22G35   29.95S HX  80
BLOOMINGTON    MOSUNNY   77  54  44 SW29G35   29.95F
DECATUR        MOSUNNY   75  55  49 S26G36    29.99F
PEORIA         MOSUNNY   77  48  35 SW24G32   29.92F
SPRINGFIELD    MOSUNNY   77  55  46 S21       29.95F
TAYLORVILLE    NOT AVBL
$$

ILZ033-039-045-046-055>057-062-063-242000-
EAST-CENTRAL ILLINOIS

CITY           SKY/WX    TMP DP  RH WIND       PRES   REMARKS
CHAMPAIGN      SUNNY     76  55  48 S33G40    29.99F
RANTOUL*       MOSUNNY   78  58  49 S24G35    29.98F
MATTOON        MOSUNNY   72  57  59 S22G31    30.03F
PARIS*         PTSUNNY   73  58  58 S29G37    30.05F
$$

ILZ079-100>102-242000-
SOUTHWEST ILLINOIS

CITY           SKY/WX    TMP DP  RH WIND       PRES   REMARKS
ALTON          PTSUNNY   73  55  53 S17G29    29.97F
BELLEVILLE     MOSUNNY   78  56  47 S25G38    29.98F
CAHOKIA*       MOSUNNY   77  52  41 S18G30    29.97F
SPARTA*        PTSUNNY   73  57  59 S22G31    30.03F
$$

ILZ064>066-069>071-074>076-080>082-084>086-088>090-092>094-242000-
SOUTH-CENTRAL ILLINOIS

CITY           SKY/WX    TMP DP  RH WIND       PRES   REMARKS
CARBONDALE     PTSUNNY   71  59  65 S30G41    30.06F
CAIRO*         CLOUDY    73  59  62 S21G28    30.11F
EFFINGHAM*     PTSUNNY   73  58  59 S20G29    30.05F
MARION         PTSUNNY   73  59  60 S18G32    30.08F
MT. VERNON     CLOUDY    73  58  59 S29G35    30.06F
CENTRALIA*     PTSUNNY   74  60  61 S29G38    30.03F
SALEM*         PTSUNNY   74  58  57 S26G33    30.04F
$$

ILZ067-068-072-073-078-083-087-091-242000-
SOUTHEAST ILLINOIS

CITY           SKY/WX    TMP DP  RH WIND       PRES   REMARKS
LAWRENCEVILLE  CLOUDY    73  57  57 S28G38    30.09F
FLORA*         PTSUNNY   74  59  59 S29G36    30.07F
FAIRFIELD*     CLOUDY    71  58  64 S15G24    30.07F
HARRISBURG*    CLOUDY    72  59  64 S21G30    30.10F
ROBINSON*      CLOUDY    70  57  63 S20G28    30.09F
CARMI*         CLOUDY    72  59  64 S24G33    30.10F
$$

ABBREVIATIONS USED IN REMARKS
   TC - TEMPERATURE IN CELSIUS
  WCI - WIND CHILL INDEX
   HX - HEAT INDEX
  VSB - VISIBILITY
$$





USA.gov is the U.S. government's official web portal to all federal, state and local government web resources and services.